Location: Unspecified
(49.2170°N, 0.0000°E)
Time: 03:23:45
(UTC+00:00)

Transit 4A - Pass Details

Date: 23 June 2019
Orbit: 866 x 978 km, 66.8° (Epoch: 13 October)

Event Time Altitude Azimuth Distance (km) Brightness Sun altitude
Rises 10:58:26 0° 277° (W) 3,657 10.8 61.3°
Reaches altitude 10° 11:01:46 10° 294° (WNW) 2,724 10.2 61.6°
Maximum altitude 11:06:21 20° 340° (NNW) 2,095 9.7 62.0°
Drops below altitude 10° 11:10:57 10° 26° (NNE) 2,739 10.3 62.3°
Sets 11:14:19 0° 43° (NE) 3,683 10.9 62.5°
